Tracking 29892 objects as of 21-Nov-2024
HD Live streaming from Space Station
objects crossing your sky now

STARLINK-2535

Track STARLINK-2535 now!
10-day predictions
STARLINK-2535 is classified as:


NORAD ID: 48295
Int'l Code: 2021-036V
Perigee: 553.2 km
Apogee: 555.2 km
Inclination: 53.1 °
Period: 95.6 minutes
Semi major axis: 6925 km
RCS: Unknown
Launch date: April 29, 2021
Source: United States (US)
Launch site: AIR FORCE EASTERN TEST RANGE (AFETR)
Your satellite tracking list
Your tracking list is empty




NASA's NSSDC Master Catalog

Two Line Element Set (TLE):
1 48295U 21036V   24325.63831680  .00022064  00000-0  14933-2 0  9997
2 48295  53.0528  49.7172 0001457  84.7846 275.3309 15.06454556196867
Source of the keplerian elements: AFSPC